User: anonymous   Login
Location: Unspecified
(0.0000°N, 0.0000°E)
Time: 20:05:15
(UTC+00:00)
Language:

STARLINK-31226 - Orbit

View from above orbital plane
View from above orbital plane
View from above satellite
View from above satellite

Ground track
Ground track

The orbit is defined by the following mean orbital elements,

1 58858U          26145.53715694 +.00000000 +00000-0 +25181-4 0 00006
2 58858  43.0023 175.0718 0001228 289.8603  70.2117 15.27575326    07
Epoch (UTC): 25 May 2026 12:53:30
Eccentricity: 0.0001228
inclination: 43.0023°
perigee height: 482 km
apogee height: 484 km
right ascension of ascending node: 175.0718°
argument of perigee: 289.8603°
revolutions per day: 15.27575326
mean anomaly at epoch: 70.2117°

The dashed part of the orbit path shows where the satellite is in the earth's shadow,  

DLR